| time (UTC) | temp F | wind direction | speed MPH | gust MPH | rain 1hr in | rain 24hr in | rain mn in | humidity % | barometer mb |
| 20260506214535 | 82 | 286 | 0.0 | 0.0 | 0.00 | 0.00 | 0.00 | 33 | 1019.7 |
| 20260506213030 | 81 | 241 | 0.0 | 0.0 | 0.00 | 0.00 | 0.00 | 30 | 1019.8 |
| 20260506211528 | 81 | 221 | 0.0 | 0.0 | 0.00 | 0.00 | 0.00 | 30 | 1020.0 |
| 20260506210027 | 81 | 289 | 0.0 | 0.0 | 0.00 | 0.00 | 0.00 | 31 | 1020.1 |
| 20260506204525 | 79 | 310 | 0.0 | 0.0 | 0.00 | 0.00 | 0.00 | 30 | 1020.1 |
| 20260506203025 | 79 | 180 | 0.0 | 0.0 | 0.00 | 0.00 | 0.00 | 32 | 1020.3 |
| 20260506201520 | 78 | 120 | 0.0 | 1.0 | 0.00 | 0.00 | 0.00 | 33 | 1020.4 |
| 20260506200016 | 77 | 147 | 0.0 | 0.0 | 0.00 | 0.00 | 0.00 | 34 | 1020.4 |
| 20260506194513 | 75 | 202 | 0.0 | 0.0 | 0.00 | 0.00 | 0.00 | 32 | 1020.7 |
| 20260506193009 | 73 | 224 | 0.0 | 0.0 | 0.00 | 0.00 | 0.00 | 37 | 1021.0 |
| 20260506191505 | 71 | 310 | 0.0 | 0.0 | 0.00 | 0.00 | 0.00 | 49 | 1021.1 |
| 20260506190100 | 70 | 322 | 0.0 | 0.0 | 0.00 | 0.00 | 0.00 | 54 | 1021.3 |
| 20260506184557 | 69 | 322 | 0.0 | 0.0 | 0.00 | 0.00 | 0.00 | 57 | 1021.5 |
| 20260506183100 | 67 | 323 | 0.0 | 0.0 | 0.00 | 0.00 | 0.00 | 61 | 1021.6 |
| 20260506181600 | 66 | 68 | 0.0 | 0.0 | 0.00 | 0.00 | 0.00 | 63 | 1021.6 |
| 20260506180044 | 64 | 300 | 0.0 | 0.0 | 0.00 | 0.00 | 0.00 | 66 | 1021.7 |
| 20260506174540 | 63 | 242 | 0.0 | 0.0 | 0.00 | 0.00 | 0.00 | 68 | 1021.8 |
| 20260506173047 | 61 | 243 | 0.0 | 0.0 | 0.00 | 0.00 | 0.00 | 71 | 1021.8 |
| 20260506171534 | 60 | 251 | 0.0 | 0.0 | 0.00 | 0.00 | 0.00 | 74 | 1021.8 |
| 20260506170027 | 58 | 212 | 0.0 | 0.0 | 0.00 | 0.00 | 0.00 | 78 | 1021.9 |
| 20260506164524 | 57 | 202 | 0.0 | 0.0 | 0.00 | 0.00 | 0.00 | 81 | 1021.9 |
| 20260506163020 | 56 | 218 | 0.0 | 0.0 | 0.00 | 0.00 | 0.00 | 83 | 1021.7 |
| 20260506161518 | 54 | 185 | 0.0 | 0.0 | 0.00 | 0.00 | 0.00 | 84 | 1021.6 |
| 20260506160020 | 53 | 202 | 0.0 | 0.0 | 0.00 | 0.00 | 0.00 | 86 | 1021.6 |
| 20260506154515 | 52 | 197 | 0.0 | 0.0 | 0.00 | 0.00 | 0.00 | 87 | 1021.7 |
| 20260506153005 | 52 | 202 | 0.0 | 0.0 | 0.00 | 0.00 | 0.00 | 88 | 1021.7 |
| 20260506151504 | 51 | 144 | 0.0 | 0.0 | 0.00 | 0.00 | 0.00 | 89 | 1021.8 |
| 20260506150001 | 50 | 145 | 0.0 | 0.0 | 0.00 | 0.00 | 0.00 | 89 | 1021.7 |
| 20260506144609 | 49 | 194 | 0.0 | 0.0 | 0.00 | 0.01 | 0.00 | 90 | 1021.6 |
| 20260506143059 | 49 | 169 | 0.0 | 0.0 | 0.00 | 0.01 | 0.00 | 91 | 1021.5 |
| 20260506141557 | 49 | 171 | 0.0 | 0.0 | 0.00 | 0.01 | 0.00 | 91 | 1021.4 |
| 20260506140055 | 48 | 158 | 0.0 | 0.0 | 0.00 | 0.01 | 0.00 | 90 | 1021.4 |
| 20260506134553 | 48 | 158 | 0.0 | 0.0 | 0.00 | 0.01 | 0.00 | 90 | 1021.3 |
| 20260506133056 | 48 | 160 | 0.0 | 0.0 | 0.00 | 0.01 | 0.00 | 90 | 1021.2 |
| 20260506131559 | 48 | 160 | 0.0 | 0.0 | 0.00 | 0.01 | 0.00 | 90 | 1021.0 |
| 20260506130053 | 49 | 158 | 0.0 | 0.0 | 0.00 | 0.01 | 0.00 | 90 | 1020.8 |
| 20260506124546 | 49 | 158 | 0.0 | 0.0 | 0.00 | 0.01 | 0.00 | 90 | 1020.7 |
| 20260506123044 | 49 | 159 | 0.0 | 0.0 | 0.00 | 0.01 | 0.00 | 90 | 1020.7 |
| 20260506121542 | 49 | 158 | 0.0 | 0.0 | 0.00 | 0.01 | 0.00 | 90 | 1020.7 |
| 20260506120041 | 49 | 202 | 0.0 | 0.0 | 0.00 | 0.01 | 0.00 | 90 | 1020.5 |
| 20260506114539 | 49 | 138 | 0.0 | 0.0 | 0.00 | 0.01 | 0.00 | 90 | 1020.5 |
| 20260506113038 | 49 | 156 | 0.0 | 0.0 | 0.00 | 0.01 | 0.00 | 89 | 1020.5 |
| 20260506111536 | 49 | 153 | 0.0 | 0.0 | 0.00 | 0.01 | 0.00 | 89 | 1020.4 |
| 20260506110035 | 50 | 185 | 0.0 | 0.0 | 0.00 | 0.01 | 0.00 | 89 | 1020.3 |
| 20260506104534 | 50 | 166 | 0.0 | 0.0 | 0.00 | 0.01 | 0.00 | 89 | 1020.3 |
| 20260506103038 | 50 | 163 | 0.0 | 0.0 | 0.00 | 0.01 | 0.00 | 88 | 1020.2 |
| 20260506101531 | 50 | 178 | 0.0 | 0.0 | 0.00 | 0.01 | 0.00 | 88 | 1020.3 |
| 20260506100036 | 50 | 160 | 0.0 | 0.0 | 0.00 | 0.01 | 0.00 | 88 | 1020.3 |
| 20260506094535 | 50 | 161 | 0.0 | 0.0 | 0.00 | 0.01 | 0.00 | 87 | 1020.3 |
| 20260506093034 | 50 | 168 | 0.0 | 0.0 | 0.00 | 0.01 | 0.00 | 87 | 1020.1 |
| 20260506091528 | 50 | 169 | 0.0 | 0.0 | 0.00 | 0.01 | 0.00 | 87 | 1020.1 |
| 20260506090025 | 50 | 161 | 0.0 | 0.0 | 0.00 | 0.01 | 0.00 | 87 | 1020.0 |
| 20260506084525 | 51 | 162 | 0.0 | 0.0 | 0.00 | 0.01 | 0.00 | 87 | 1020.0 |
| 20260506083023 | 51 | 149 | 0.0 | 0.0 | 0.00 | 0.01 | 0.00 | 86 | 1020.0 |
| 20260506081530 | 51 | 149 | 0.0 | 0.0 | 0.00 | 0.01 | 0.00 | 86 | 1019.9 |
| 20260506073018 | 51 | 151 | 0.0 | 0.0 | 0.00 | 0.01 | 0.00 | 85 | 1019.6 |
| 20260506071516 | 52 | 143 | 0.0 | 0.0 | 0.00 | 0.01 | 0.00 | 84 | 1019.5 |
| 20260506061514 | 53 | 143 | 0.0 | 0.0 | 0.00 | 0.01 | 0.01 | 80 | 1019.2 |
| 20260506044502 | 57 | 126 | 0.0 | 0.0 | 0.00 | 0.01 | 0.01 | 66 | 1018.4 |
| 20260506043002 | 59 | 27 | 0.0 | 0.0 | 0.00 | 0.01 | 0.01 | 62 | 1018.2 |
| 20260506041600 | 61 | 20 | 0.0 | 0.0 | 0.00 | 0.01 | 0.01 | 57 | 1017.9 |
| 20260506040058 | 63 | 11 | 0.0 | 0.0 | 0.00 | 0.01 | 0.01 | 53 | 1017.7 |
| 20260506034600 | 63 | 14 | 0.0 | 0.0 | 0.00 | 0.01 | 0.01 | 46 | 1017.4 |
| 20260506033057 | 64 | 352 | 0.0 | 0.0 | 0.00 | 0.01 | 0.01 | 41 | 1017.0 |
| 20260506031559 | 67 | 337 | 0.0 | 0.0 | 0.00 | 0.01 | 0.01 | 39 | 1016.9 |
| 20260506030057 | 68 | 339 | 0.0 | 0.0 | 0.00 | 0.01 | 0.01 | 37 | 1016.6 |
| 20260506024600 | 70 | 339 | 0.0 | 0.0 | 0.00 | 0.01 | 0.01 | 36 | 1016.3 |
| 20260506023059 | 72 | 279 | 0.0 | 0.0 | 0.00 | 0.01 | 0.01 | 34 | 1016.0 |
| 20260506021555 | 74 | 278 | 0.0 | 0.0 | 0.00 | 0.01 | 0.01 | 33 | 1015.7 |
| 20260506020054 | 76 | 4 | 0.0 | 0.0 | 0.00 | 0.01 | 0.01 | 31 | 1015.6 |
| 20260506014554 | 76 | 64 | 0.0 | 0.0 | 0.00 | 0.01 | 0.01 | 30 | 1015.5 |
| 20260506013053 | 77 | 85 | 0.0 | 0.0 | 0.00 | 0.01 | 0.01 | 29 | 1015.3 |
| 20260506011553 | 78 | 34 | 0.0 | 0.0 | 0.00 | 0.01 | 0.01 | 31 | 1015.2 |
| 20260506010051 | 78 | 322 | 0.0 | 0.0 | 0.00 | 0.01 | 0.01 | 29 | 1015.2 |
| 20260506004551 | 78 | 54 | 0.0 | 0.0 | 0.00 | 0.01 | 0.01 | 28 | 1015.2 |
| 20260506003050 | 79 | 296 | 0.0 | 0.0 | 0.00 | 0.01 | 0.01 | 29 | 1015.0 |
| 20260506001550 | 79 | 312 | 0.0 | 0.0 | 0.00 | 0.01 | 0.01 | 30 | 1015.1 |
| 20260506000046 | 79 | 295 | 0.0 | 0.0 | 0.00 | 0.01 | 0.01 | 29 | 1015.2 |
| 20260505234549 | 79 | 339 | 0.0 | 0.0 | 0.00 | 0.01 | 0.01 | 30 | 1015.2 |
| 20260505233042 | 79 | 245 | 0.0 | 0.0 | 0.00 | 0.01 | 0.01 | 30 | 1015.3 |
| 20260505231551 | 79 | 62 | 0.0 | 0.0 | 0.00 | 0.01 | 0.01 | 29 | 1015.4 |
| 20260505230050 | 79 | 40 | 0.0 | 0.0 | 0.00 | 0.01 | 0.01 | 28 | 1015.7 |
| 20260505224536 | 78 | 280 | 0.0 | 3.0 | 0.00 | 0.03 | 0.01 | 31 | 1015.7 |
| 20260505223034 | 78 | 303 | 0.0 | 0.0 | 0.00 | 0.03 | 0.01 | 30 | 1015.7 |
| 20260505221534 | 78 | 66 | 0.0 | 0.0 | 0.00 | 0.03 | 0.01 | 30 | 1015.9 |
| 20260505220033 | 78 | 320 | 0.0 | 0.0 | 0.00 | 0.03 | 0.01 | 31 | 1016.0 |